www.pogodaiklimat.ru

Погода и климат >> Архив погоды >> Индия >> Veraval


ПОГОДА в Veraval

  • Прогноз погоды в Veraval
  • Монитор погоды в Veraval
  • Климат города

АРХИВ ПОГОДЫ в Veraval

Время (UTC), дата Ветер
(напр.,м/с)
 
Видим.   Явления Облачность Т
(С)
Тd
(С)
f
(%)
Тe
(С)
Тes
(С)
Комфортность P
(гПа)
Po
(гПа)
Тmin
(С)
Tmax
(С)
R
(мм)
R24
(мм)
S
(см)
00 16.07 З 4 4000 м {дождь} 10/5 600 м
[Sc As op]
+26.6 +12.3 41 +38 +38 очень
душно
1001.3 1001.0 74
03 16.07 З 5 4000 м {дождь} 6/5 600 м
[Cu Sc Ac trans]
+27.2 0.0 17 +25 +26 комфорт 1002.3 1002.0 +25.0 75
06 16.07 З 2 10 км {дождь, морось} 8/5 600 м
[Sc As op]
+27.8 0.0 16 +25 +31 комфорт 1002.7 1003.0 2
09 16.07 З 3 10 км 8/5 600 м
[Sc As trans]
+28.2 0.0 16 +26 +31 жарко 1001.5 1002.0 2
12 16.07 З 3 10 км 9/4 600 м
[Sc As op Ci fib]
+28.0 +12.3 38 +26 +27 жарко 1000.8 1001.0 +28.4 2
15 16.07 З 3 4000 м 8/4 600 м
[Cu Sc Ac trans]
+27.2 +24.6 86 +39 +39 очень
душно
1001.5 1002.0 1
18 16.07 штиль 0 4000 м 6/3 600 м
[Sc Ac trans]
+27.0 +24.7 87 +38 +38 очень
душно
1002.7 1003.0
21 16.07 З 4 4000 м {морось} 9/4 600 м
[Sc As op]
+27.2 +25.2 89 +39 +39 очень
душно
1001.2 1001.0 2
00 17.07 З 4 4000 м {морось} 9/4 600 м
[Sc As op]
+26.8 +25.1 90 +39 +39 очень
душно
1000.4 1000.0 2
03 17.07 З 3 10 км 10/5 600 м
[Sc As op]
+27.2 +12.5 40 +25 +26 комфорт 1001.8 1002.0 +26.0 2
06 17.07 З 2 10 км 6/3 600 м
[Sc Ac trans]
+30.0 0.0 14 +27 +37 жарко 1002.4 1002.0
09 17.07 З 2 10 км 6/4 600 м
[Sc Ac trans]
+30.0 0.0 14 +27 +37 жарко 1001.2 1001.0
12 17.07 штиль 0 10 км 6/4 600 м
[Sc As trans]
+28.6 0.0 16 +26 +29 жарко 999.7 1000.0 +30.2
15 17.07 штиль 0 4000 м 8/4 600 м
[Sc As op]
+27.0 +12.5 41 +39 +39 очень
душно
1001.5 1002.0
18 17.07 штиль 0 4000 м 6/3 600 м
[Sc As op]
+27.4 +24.8 86 +39 +39 очень
душно
1002.5 1003.0
21 17.07 штиль 0 4000 м мгла 8/3 600 м
[Sc As op]
+27.0 +24.4 86 +38 +38 очень
душно
1000.7 1001.0
00 18.07 ЮЗ 3 4000 м мгла {морось} 6/4 600 м
[Sc As trans]
+26.6 +12.1 41 +37 +37 очень
душно
999.9 1000.0 0.3
03 18.07 штиль 0 4000 м мгла {морось} 10/5 600 м
[Sc As op]
+26.2 0.0 18 +24 +25 комфорт 1001.5 1002.0 +26.4 0.5
06 18.07 штиль 0 4000 м слабый дождь {морось} 10/6 450 м
[Frnb As op]
+25.6 0.0 19 +24 +26 комфорт 1002.5 1003.0 13
09 18.07 штиль 0 4000 м слабая морось {дождь} 10/5 600 м
[Sc As op]
+26.6 0.0 18 +25 +27 комфорт 1000.4 1000.0 24
12 18.07 З 2 4000 м {дождь, морось} 9/4 600 м
[Sc Ac trans]
+27.4 +12.8 40 +25 +27 комфорт 998.8 999.0 +27.7 24
15 18.07 З 2 4000 м 8/3 600 м
[Sc Ac trans]
+26.6 +25.7 95 +39 +39 очень
душно
999.8 1000.0 24
18 18.07 З 2 4000 м 8/4 600 м
[Sc Ac trans]
+27.2 +25.8 92 +40 +40 очень
душно
1001.4 1001.0 24
21 18.07 З 2 4000 м 5/5 600 м
[Sc]
+26.8 +25.7 94 +40 +40 очень
душно
999.8 1000.0 24
00 19.07 З 1 4000 м 8/4 600 м
[Sc Ac trans]
+26.6 +12.8 42 +39 +39 очень
душно
998.9 999.0 24
03 19.07 штиль 0 4000 м мгла 9/3 600 м
[Sc Ac trans]
+27.2 0.0 17 +25 +28 комфорт 999.9 1000.0 +26.3 24
06 19.07 Ю 2 10 км 5/4 600 м
[Sc Ci fib]
+29.0 0.0 15 +26 +39 жарко 999.7 1000.0
09 19.07 ЮЗ 2 10 км 5/5 600 м
[Sc]
+30.0 0.0 14 +27 +36 жарко 997.8 998.0
12 19.07 ЮЗ 2 10 км 4/4 600 м
[Sc]
+29.6 0.0 15 +27 +29 жарко 996.0 996.0 +30.4
15 19.07 штиль 0 4000 м 5/5 600 м
[Sc]
+28.6 +12.8 38 +43 +43 опасность
перегрева
998.3 998.0
18 19.07 штиль 0 4000 м 3/3 600 м
[Sc]
+27.4 +25.7 90 +40 +40 очень
душно
998.5 999.0
21 19.07 штиль 0 4000 м 5/5 600 м
[Sc]
+27.2 +25.8 92 +40 +40 очень
душно
997.7 998.0
00 20.07 ЮЗ 1 4000 м 3/3 600 м
[Sc]
+26.4 +24.4 89 +37 +37 очень
душно
996.4 996.0
03 20.07 штиль 0 10 км 5/5 600 м
[Sc]
+28.2 +12.0 37 +26 +30 жарко 997.5 998.0 +26.8
06 20.07 В 1 10 км 8/5 600 м
[Sc As trans]
+29.0 0.0 15 +26 +34 жарко 997.6 998.0
09 20.07 Ю 2 10 км {дождь, морось} 6/3 600 м
[Sc As trans]
+30.0 0.0 14 +27 +38 жарко 995.4 995.0 3
12 20.07 З 2 10 км {дождь, морось} 10/5 600 м
[Sc As op]
+28.4 +12.9 38 +26 +26 жарко 994.3 994.0 +30.4 12
15 20.07 З 3 4000 м дождь {морось} 10/6 600 м
[Sc As op]
+26.4 +25.8 97 +39 +39 очень
душно
996.1 996.0 19
18 20.07 З 3 4000 м дождь {морось} 10/3 540 м
[Cb calv As op]
+26.8 +25.7 94 +40 +40 очень
душно
998.1 998.0 142
21 20.07 штиль 0 4000 м в посл. час морось {дождь} 10/4 600 м
[Sc As op]
+27.2 +25.8 92 +40 +40 очень
душно
997.3 997.0 151
00 21.07 штиль 0 4000 м 6/6 600 м
[Sc]
+27.4 +12.9 41 +42 +42 опасность
перегрева
997.1 997.0 151
03 21.07 З 2 10 км 10/6 600 м
[Sc As op]
+27.6 0.0 17 +25 +26 комфорт 998.7 999.0 +26.0 151
06 21.07 З 2 4000 м дождь 10/6 450 м
[Frnb As op]
+26.4 0.0 18 +25 +26 комфорт 1000.1 1000.0 51
09 21.07 З 2 4000 м {дождь} 10/5 600 м
[Sc As op]
+27.0 0.0 17 +25 +27 комфорт 999.0 999.0 87
12 21.07 З 4 4000 м слабый дождь 10/6 450 м
[Frnb As op]
+26.0 +12.5 43 +24 +24 комфорт 998.2 998.0 +27.9 113
15 21.07 З 2 4000 м слабый дождь 10/5 600 м
[Sc As op]
+26.2 +25.3 95 +38 +38 очень
душно
999.9 1000.0 119
18 21.07 З 2 4000 м {дождь} 10/4 600 м
[Sc As op]
+27.0 +26.2 95 +41 +41 опасность
перегрева
1000.5 1001.0 120
21 21.07 З 3 4000 м 10/4 600 м
[Sc As op]
+27.2 +26.1 94 +41 +41 опасность
перегрева
999.9 1000.0 120
00 22.07 З 3 4000 м 10/5 600 м
[Sc As op]
+26.8 +13.0 42 +40 +40 очень
душно
999.9 1000.0 121
03 22.07 З 3 4000 м {дождь} 10/4 600 м
[Cu Sc As op]
+27.4 0.0 17 +25 +26 комфорт 1001.1 1001.0 +25.6 121
06 22.07 З 2 10 км 9/5 600 м
[Sc As op]
+28.0 0.0 16 +26 +29 жарко 1002.3 1002.0
09 22.07 З 2 10 км в посл. час морось 10/4 600 м
[Sc As op]
+28.0 0.0 16 +26 +28 жарко 1001.5 1002.0 0.3
12 22.07 З 2 10 км 10/5 600 м
[Sc As op]
+28.6 0.0 16 +26 +27 жарко 1000.9 1001.0 +29.0 0.3
15 22.07 З 2 4000 м 9/5 600 м
[Sc Ac trans]
+27.8 +25.8 89 +41 +41 опасность
перегрева
1001.3 1001.0 0.3
18 22.07 З 2 4000 м 10/4 600 м
[Sc As op]
+27.8 +25.8 89 +41 +41 опасность
перегрева
1002.3 1002.0 0.3

 

Местоположение метеостанции Veraval (Gujarat, Индия): широта 20.90 долгота 70.37 высота над уровнем моря 8 м.

В архиве по умолчанию представлена погода в Veraval за последнюю неделю. Архивные данные за месяц целиком и за предыдущие месяцы, начиная с января 2011 года, Вы можете получить, выбрав интересующий диапазон дат из раскрывающегося списка и нажав кнопку "Ввод!".

Внимание! Время в таблицах - всемирное. Для получения местного времени необходимо прибавить поправку, которая в Veraval равна 5.5 ч.

Смотрите также архив погоды в соседних городах и на ближайших метеорологических станциях:

Погода в Diu (Daman and Diu, Индия) (61 км)
Погода в Porbandar (Gujarat, Индия) (111 км)
Погода в Amreli (Gujarat, Индия) (118 км)
Погода в Mahuva (Gujarat, Индия) (148 км)
Погода в Rajkot (Gujarat, Индия) (161 км)
Погода в Dwarka (Gujarat, Индия) (211 км)
Погода в Bhaunagar (Gujarat, Индия) (212 км)
Погода в Okha (Gujarat, Индия) (218 км)
Погода в New Kandla (Gujarat, Индия) (234 км)
Погода в Surendranagar (Gujarat, Индия) (240 км)

Пояснения к столбцам:

Ветер - указаны скорость ветра в м/с - средняя за 10 мин, порывы в срок и между сроками (в фигурных скобках) и направление, откуда дует ветер: С - северный, СВ - северо-восточный, В - восточный, ЮВ - юго-восточный, Ю - южный, ЮЗ - юго-западный, З - западный, СЗ - северо-западный.
Видимость - горизонтальная дальность видимости в метрах или километрах. При видимости от 1 до 10 км при отсутствии осадков обычно наблюдается дымка, при ухудшении видимости до 1 км и менее - туман. В сухую погоду видимость может ухудшаться дымом, пылью или мглою.
Явления - указаны атмосферные явления, наблюдавшиеся в срок или в последний час перед сроком; фигурными скобками обозначены явления, наблюдавшиеся между сроками (за 1-3 часа до срока); квадратными скобками обозначены град или гололедные отложения с указанием их диаметра в мм.
Облачность - указаны через наклонную черту общая и нижняя облачность в баллах и высота нижней границы облаков в метрах; квадратными скобками обозначены формы облаков: Ci - перистые, Cs - перисто-слоистые, Cc - перисто-кучевые, Ac - высококучевые, As - высокослоистые, Sc - слоисто-кучевые, Ns - слоисто-дождевые, Cu - кучевые, Cb - кучево-дождевые. Подробнее классификацию облаков см. в Атласе облаков (PDF).
T - Температура воздуха - температура, измеренная на высоте 2 м над землей.
Td - Температура точки росы - температура, при понижении до которой содержащийся в воздухе водяной пар достигнет насыщения.
f - Относительная влажность воздуха - влажноcть воздуха, измеренная на высоте 2 м над землей.
Te - Эффективная температура - температура, которую ощущает одетый по сезону человек в тени. Характеристика душности погоды. При расчете учитывается влияние влажности воздуха и скорости ветра на теплоощущения человека.
Tes - Эффективная температура на солнце - температура, которую ощущает человек, с поправкой на солнечный нагрев. Характеристика знойности погоды. Зависит от высоты солнца над горизонтом, облачности и скорости ветра. Ночью, в пасмурную погоду, а также при ветре 12 м/с и более поправка равна нулю.
P - Атмосферное давление - приведенное к уровню моря атмосферное давление.
Po - Атмосферное давление - измеренное на уровне метеостанции атмосферное давление.
Tmin - Минимальная температура - минимум температуры воздуха на высоте 2 м над землей.
Tmax - Максимальная температура - максимум температуры воздуха на высоте 2 м над землей.
R - Количество осадков - Количество выпавших осадков за период времени, мм. При наведении курсора мыши на число - период времени, за который выпало указанное количество осадков.
R24 - Количество осадков - Количество выпавших осадков за 24 часа, мм.
S - Снежный покров - Высота снежного покрова, см. При наведении курсора мыши на число - состояние снежного покрова и степень покрытия местности в баллах.